| time (UTC) | temp C | wind direction | speed KPH | gust KPH | rain 1hr cm | rain 24hr cm | rain mn cm | humidity % | barometer mb |
| 20260510194738 | 16 | 111 | 3.2 | 4.8 | 0.00 | 0.00 | 0.00 | ||
| 20260510194337 | 17 | 111 | 4.8 | 4.8 | 0.00 | 0.00 | 0.00 | ||
| 20260510193936 | 16 | 115 | 4.8 | 6.4 | 0.00 | 0.00 | 0.00 | ||
| 20260510193533 | 15 | 135 | 3.2 | 4.8 | 0.00 | 0.00 | 0.00 | ||
| 20260510193132 | 16 | 135 | 3.2 | 8.0 | 0.00 | 0.00 | 0.00 | ||
| 20260510192730 | 16 | 106 | 4.8 | 6.4 | 0.00 | 0.00 | 0.00 | ||
| 20260510192329 | 16 | 90 | 8.0 | 9.7 | 0.00 | 0.00 | 0.00 | ||
| 20260510191927 | 16 | 111 | 1.6 | 3.2 | 0.00 | 0.00 | 0.00 | ||
| 20260510191525 | 16 | 111 | 3.2 | 6.4 | 0.00 | 0.00 | 0.00 | ||
| 20260510191117 | 16 | 144 | 1.6 | 3.2 | 0.00 | 0.00 | 0.00 | ||
| 20260510190313 | 16 | 82 | 6.4 | 8.0 | 0.00 | 0.00 | 0.00 | ||
| 20260510185912 | 17 | 71 | 8.0 | 12.9 | 0.00 | 0.00 | 0.00 | ||
| 20260510185510 | 17 | 69 | 9.7 | 16.1 | 0.00 | 0.00 | 0.00 | ||
| 20260510185109 | 17 | 67 | 9.7 | 12.9 | 0.00 | 0.00 | 0.00 | ||
| 20260510184706 | 17 | 63 | 8.0 | 14.5 | 0.00 | 0.00 | 0.00 | ||
| 20260510184305 | 17 | 67 | 9.7 | 12.9 | 0.00 | 0.00 | 0.00 | ||
| 20260510183904 | 17 | 61 | 8.0 | 11.3 | 0.00 | 0.00 | 0.00 | ||
| 20260510183502 | 17 | 58 | 9.7 | 14.5 | 0.00 | 0.00 | 0.00 | ||
| 20260510183054 | 17 | 72 | 8.0 | 14.5 | 0.00 | 0.00 | 0.00 | ||
| 20260510182651 | 17 | 67 | 8.0 | 12.9 | 0.00 | 0.00 | 0.00 | ||
| 20260510182250 | 17 | 66 | 8.0 | 9.7 | 0.00 | 0.00 | 0.00 | ||
| 20260510181849 | 17 | 64 | 6.4 | 9.7 | 0.00 | 0.00 | 0.00 | ||
| 20260510181447 | 17 | 68 | 8.0 | 11.3 | 0.00 | 0.00 | 0.00 | ||
| 20260510181045 | 17 | 63 | 9.7 | 12.9 | 0.00 | 0.00 | 0.00 | ||
| 20260510180643 | 17 | 75 | 9.7 | 14.5 | 0.00 | 0.00 | 0.00 | ||
| 20260510180242 | 17 | 68 | 8.0 | 12.9 | 0.00 | 0.00 | 0.00 | ||
| 20260510175841 | 18 | 65 | 9.7 | 14.5 | 0.00 | 0.00 | 0.00 | ||
| 20260510175438 | 18 | 63 | 6.4 | 12.9 | 0.00 | 0.00 | 0.00 | ||
| 20260510175030 | 18 | 69 | 9.7 | 14.5 | 0.00 | 0.00 | 0.00 | ||
| 20260510174629 | 18 | 67 | 6.4 | 9.7 | 0.00 | 0.00 | 0.00 | ||
| 20260510174228 | 18 | 65 | 8.0 | 11.3 | 0.00 | 0.00 | 0.00 | ||
| 20260510173825 | 18 | 63 | 8.0 | 12.9 | 0.00 | 0.00 | 0.00 | ||
| 20260510173423 | 18 | 61 | 8.0 | 16.1 | 0.00 | 0.00 | 0.00 | ||
| 20260510173022 | 18 | 71 | 9.7 | 12.9 | 0.00 | 0.00 | 0.00 | ||
| 20260510172621 | 18 | 72 | 9.7 | 14.5 | 0.00 | 0.00 | 0.00 | ||
| 20260510172220 | 18 | 63 | 8.0 | 14.5 | 0.00 | 0.00 | 0.00 | ||
| 20260510171818 | 19 | 57 | 9.7 | 14.5 | 0.00 | 0.00 | 0.00 | ||
| 20260510171416 | 19 | 57 | 9.7 | 16.1 | 0.00 | 0.00 | 0.00 | ||
| 20260510171008 | 19 | 66 | 9.7 | 14.5 | 0.00 | 0.00 | 0.00 | ||
| 20260510170606 | 20 | 69 | 9.7 | 14.5 | 0.00 | 0.00 | 0.00 | ||
| 20260510170204 | 20 | 66 | 11.3 | 14.5 | 0.00 | 0.00 | 0.00 | ||
| 20260510165803 | 20 | 60 | 8.0 | 12.9 | 0.00 | 0.00 | 0.00 | ||
| 20260510165401 | 20 | 61 | 9.7 | 14.5 | 0.00 | 0.00 | 0.00 | ||
| 20260510165000 | 20 | 75 | 8.0 | 12.9 | 0.00 | 0.00 | 0.00 | ||
| 20260510164557 | 20 | 50 | 4.8 | 8.0 | 0.00 | 0.00 | 0.00 | ||
| 20260510164156 | 20 | 63 | 9.7 | 12.9 | 0.00 | 0.00 | 0.00 | ||
| 20260510163755 | 20 | 45 | 11.3 | 14.5 | 0.00 | 0.00 | 0.00 | ||
| 20260510163353 | 21 | 41 | 11.3 | 16.1 | 0.00 | 0.00 | 0.00 | ||
| 20260510162944 | 21 | 40 | 8.0 | 11.3 | 0.00 | 0.00 | 0.00 | ||
| 20260510162542 | 22 | 74 | 6.4 | 9.7 | 0.00 | 0.00 | 0.00 | ||
| 20260510162141 | 22 | 46 | 8.0 | 14.5 | 0.00 | 0.00 | 0.00 | ||
| 20260510161740 | 21 | 66 | 9.7 | 14.5 | 0.00 | 0.00 | 0.00 | ||
| 20260510161338 | 23 | 83 | 4.8 | 9.7 | 0.00 | 0.00 | 0.00 | ||
| 20260510160936 | 23 | 24 | 6.4 | 12.9 | 0.00 | 0.00 | 0.00 | ||
| 20260510160534 | 22 | 42 | 6.4 | 9.7 | 0.00 | 0.00 | 0.00 | ||
| 20260510160133 | 22 | 64 | 8.0 | 12.9 | 0.00 | 0.00 | 0.00 | ||
| 20260510155732 | 23 | 109 | 4.8 | 11.3 | 0.00 | 0.00 | 0.00 | ||
| 20260510155329 | 23 | 39 | 4.8 | 9.7 | 0.00 | 0.00 | 0.00 | ||
| 20260510154921 | 22 | 22 | 8.0 | 12.9 | 0.00 | 0.00 | 0.00 | ||
| 20260510154518 | 22 | 58 | 8.0 | 14.5 | 0.00 | 0.00 | 0.00 | ||
| 20260510154117 | 22 | 42 | 6.4 | 11.3 | 0.00 | 0.00 | 0.00 | ||
| 20260510153715 | 22 | 84 | 4.8 | 9.7 | 0.00 | 0.00 | 0.00 | ||
| 20260510153313 | 22 | 21 | 9.7 | 14.5 | 0.00 | 0.00 | 0.00 | ||
| 20260510152912 | 21 | 52 | 8.0 | 11.3 | 0.00 | 0.00 | 0.00 | ||
| 20260510152510 | 21 | 63 | 12.9 | 19.3 | 0.00 | 0.00 | 0.00 | ||
| 20260510152108 | 22 | 39 | 9.7 | 14.5 | 0.00 | 0.00 | 0.00 | ||
| 20260510151707 | 22 | 41 | 6.4 | 12.9 | 0.00 | 0.00 | 0.00 | ||
| 20260510151305 | 22 | 55 | 9.7 | 12.9 | 0.00 | 0.00 | 0.00 | ||
| 20260510150857 | 22 | 26 | 4.8 | 12.9 | 0.00 | 0.00 | 0.00 | ||
| 20260510150455 | 22 | 30 | 8.0 | 11.3 | 0.00 | 0.00 | 0.00 | ||
| 20260510150053 | 21 | 45 | 4.8 | 11.3 | 0.00 | 0.00 | 0.00 | ||
| 20260510145652 | 22 | 45 | 6.4 | 14.5 | 0.00 | 0.00 | 0.00 | ||
| 20260510145250 | 22 | 64 | 6.4 | 12.9 | 0.00 | 0.00 | 0.00 | ||
| 20260510144849 | 22 | 20 | 8.0 | 12.9 | 0.00 | 0.00 | 0.00 | ||
| 20260510144446 | 22 | 16 | 6.4 | 11.3 | 0.00 | 0.00 | 0.00 | ||
| 20260510144045 | 22 | 25 | 6.4 | 16.1 | 0.00 | 0.00 | 0.00 | ||
| 20260510143644 | 22 | 12 | 9.7 | 17.7 | 0.00 | 0.00 | 0.00 | ||
| 20260510143243 | 22 | 49 | 4.8 | 9.7 | 0.00 | 0.00 | 0.00 | ||
| 20260510142833 | 21 | 53 | 11.3 | 14.5 | 0.00 | 0.00 | 0.00 | ||
| 20260510142432 | 22 | 35 | 9.7 | 16.1 | 0.00 | 0.00 | 0.00 | ||
| 20260510142031 | 22 | 340 | 3.2 | 9.7 | 0.00 | 0.00 | 0.00 | ||
| 20260510141630 | 21 | 16 | 9.7 | 14.5 | 0.00 | 0.00 | 0.00 | ||
| 20260510141227 | 22 | 90 | 6.4 | 9.7 | 0.00 | 0.00 | 0.00 | ||
| 20260510140826 | 22 | 46 | 8.0 | 14.5 | 0.00 | 0.00 | 0.00 | ||
| 20260510140424 | 22 | 296 | 6.4 | 14.5 | 0.00 | 0.00 | 0.00 | ||
| 20260510140023 | 22 | 345 | 3.2 | 6.4 | 0.00 | 0.00 | 0.00 | ||
| 20260510135622 | 22 | 18 | 6.4 | 14.5 | 0.00 | 0.00 | 0.00 | ||
| 20260510135219 | 22 | 357 | 9.7 | 16.1 | 0.00 | 0.00 | 0.00 | ||
| 20260510134811 | 22 | 24 | 6.4 | 12.9 | 0.00 | 0.00 | 0.00 | ||
| 20260510134409 | 22 | 44 | 9.7 | 16.1 | 0.00 | 0.00 | 0.00 | ||
| 20260510134008 | 22 | 69 | 4.8 | 12.9 | 0.00 | 0.00 | 0.00 | ||
| 20260510133606 | 21 | 319 | 6.4 | 11.3 | 0.00 | 0.00 | 0.00 | ||
| 20260510133204 | 22 | 358 | 6.4 | 12.9 | 0.00 | 0.00 | 0.00 | ||
| 20260510132803 | 22 | 309 | 6.4 | 12.9 | 0.00 | 0.00 | 0.00 | ||
| 20260510132401 | 21 | 302 | 8.0 | 12.9 | 0.00 | 0.00 | 0.00 | ||
| 20260510131959 | 22 | 31 | 3.2 | 11.3 | 0.00 | 0.00 | 0.00 | ||
| 20260510131558 | 22 | 356 | 3.2 | 9.7 | 0.00 | 0.00 | 0.00 | ||
| 20260510131156 | 22 | 3 | 4.8 | 8.0 | 0.00 | 0.00 | 0.00 | ||
| 20260510130748 | 21 | 135 | 3.2 | 8.0 | 0.00 | 0.00 | 0.00 | ||
| 20260510130345 | 21 | 78 | 11.3 | 16.1 | 0.00 | 0.00 | 0.00 | ||
| 20260510125944 | 21 | 90 | 12.9 | 17.7 | 0.00 | 0.00 | 0.00 | ||
| 20260510125543 | 22 | 47 | 6.4 | 9.7 | 0.00 | 0.00 | 0.00 | ||
| 20260510125142 | 22 | 15 | 6.4 | 16.1 | 0.00 | 0.00 | 0.00 | ||
| 20260510124741 | 22 | 4 | 3.2 | 9.7 | 0.00 | 0.00 | 0.00 | ||
| 20260510124338 | 21 | 2 | 3.2 | 6.4 | 0.00 | 0.00 | 0.00 | ||
| 20260510123937 | 21 | 6 | 9.7 | 16.1 | 0.00 | 0.00 | 0.00 | ||
| 20260510123536 | 21 | 13 | 8.0 | 12.9 | 0.00 | 0.00 | 0.00 | ||
| 20260510123134 | 22 | 341 | 3.2 | 6.4 | 0.00 | 0.00 | 0.00 | ||
| 20260510122725 | 22 | 6 | 6.4 | 14.5 | 0.00 | 0.00 | 0.00 | ||
| 20260510122323 | 22 | 9 | 8.0 | 14.5 | 0.00 | 0.00 | 0.00 | ||
| 20260510121922 | 22 | 305 | 6.4 | 14.5 | 0.00 | 0.00 | 0.00 | ||
| 20260510121521 | 21 | 345 | 6.4 | 11.3 | 0.00 | 0.00 | 0.00 | ||
| 20260510121118 | 21 | 11 | 3.2 | 6.4 | 0.00 | 0.00 | 0.00 | ||
| 20260510120717 | 21 | 92 | 4.8 | 9.7 | 0.00 | 0.00 | 0.00 | ||
| 20260510120315 | 21 | 41 | 8.0 | 14.5 | 0.00 | 0.00 | 0.00 | ||
| 20260510115914 | 21 | 14 | 6.4 | 14.5 | 0.00 | 0.00 | 0.00 | ||
| 20260510115512 | 22 | 120 | 3.2 | 8.0 | 0.00 | 0.00 | 0.00 | ||
| 20260510115110 | 22 | 116 | 6.4 | 14.5 | 0.00 | 0.00 | 0.00 | ||
| 20260510114702 | 21 | 32 | 9.7 | 16.1 | 0.00 | 0.00 | 0.00 | ||
| 20260510114300 | 20 | 326 | 3.2 | 6.4 | 0.00 | 0.00 | 0.00 | ||
| 20260510113859 | 21 | 17 | 9.7 | 17.7 | 0.00 | 0.00 | 0.00 | ||
| 20260510113457 | 20 | 22 | 9.7 | 14.5 | 0.00 | 0.00 | 0.00 | ||
| 20260510113055 | 21 | 55 | 8.0 | 12.9 | 0.00 | 0.00 | 0.00 | ||
| 20260510112654 | 21 | 336 | 4.8 | 9.7 | 0.00 | 0.00 | 0.00 | ||
| 20260510112253 | 20 | 333 | 4.8 | 9.7 | 0.00 | 0.00 | 0.00 | ||
| 20260510111850 | 20 | 7 | 4.8 | 12.9 | 0.00 | 0.00 | 0.00 | ||
| 20260510111450 | 21 | 27 | 9.7 | 14.5 | 0.00 | 0.00 | 0.00 | ||
| 20260510111048 | 20 | 52 | 9.7 | 19.3 | 0.00 | 0.00 | 0.00 | ||
| 20260510110640 | 21 | 83 | 8.0 | 14.5 | 0.00 | 0.00 | 0.00 | ||
| 20260510110237 | 20 | 33 | 12.9 | 22.5 | 0.00 | 0.00 | 0.00 | ||
| 20260510105836 | 20 | 33 | 8.0 | 11.3 | 0.00 | 0.00 | 0.00 | ||
| 20260510105435 | 21 | 52 | 6.4 | 11.3 | 0.00 | 0.00 | 0.00 | ||
| 20260510105033 | 20 | 13 | 8.0 | 16.1 | 0.00 | 0.00 | 0.00 | ||
| 20260510104631 | 21 | 2 | 8.0 | 16.1 | 0.00 | 0.00 | 0.00 | ||
| 20260510104229 | 20 | 39 | 6.4 | 14.5 | 0.00 | 0.00 | 0.00 | ||
| 20260510103828 | 20 | 343 | 4.8 | 12.9 | 0.00 | 0.00 | 0.00 | ||
| 20260510103427 | 20 | 355 | 6.4 | 9.7 | 0.00 | 0.00 | 0.00 | ||
| 20260510103025 | 20 | 19 | 3.2 | 9.7 | 0.00 | 0.00 | 0.00 | ||
| 20260510102617 | 20 | 13 | 8.0 | 14.5 | 0.00 | 0.00 | 0.00 | ||
| 20260510102214 | 20 | 346 | 8.0 | 11.3 | 0.00 | 0.00 | 0.00 | ||
| 20260510101813 | 20 | 358 | 3.2 | 9.7 | 0.00 | 0.00 | 0.00 | ||
| 20260510101412 | 20 | 9 | 8.0 | 12.9 | 0.00 | 0.00 | 0.00 | ||
| 20260510101009 | 20 | 27 | 12.9 | 16.1 | 0.00 | 0.00 | 0.00 | ||
| 20260510100608 | 20 | 59 | 6.4 | 14.5 | 0.00 | 0.00 | 0.00 | ||
| 20260510100206 | 20 | 88 | 8.0 | 14.5 | 0.00 | 0.00 | 0.00 | ||
| 20260510095806 | 19 | 50 | 4.8 | 11.3 | 0.00 | 0.00 | 0.00 | ||
| 20260510095403 | 19 | 334 | 6.4 | 11.3 | 0.00 | 0.00 | 0.00 | ||
| 20260510095001 | 20 | 354 | 4.8 | 8.0 | 0.00 | 0.00 | 0.00 | ||
| 20260510094553 | 19 | 26 | 4.8 | 9.7 | 0.00 | 0.00 | 0.00 | ||
| 20260510094151 | 19 | 54 | 8.0 | 11.3 | 0.00 | 0.00 | 0.00 | ||
| 20260510093749 | 19 | 16 | 8.0 | 12.9 | 0.00 | 0.00 | 0.00 | ||
| 20260510093348 | 19 | 60 | 6.4 | 14.5 | 0.00 | 0.00 | 0.00 | ||
| 20260510092946 | 18 | 355 | 4.8 | 8.0 | 0.00 | 0.00 | 0.00 | ||
| 20260510092545 | 19 | 85 | 4.8 | 8.0 | 0.00 | 0.00 | 0.00 | ||
| 20260510092144 | 19 | 98 | 9.7 | 12.9 | 0.00 | 0.00 | 0.00 | ||
| 20260510091741 | 20 | 90 | 3.2 | 6.4 | 0.00 | 0.00 | 0.00 | ||
| 20260510091340 | 19 | 105 | 3.2 | 8.0 | 0.00 | 0.00 | 0.00 | ||
| 20260510090939 | 18 | 24 | 4.8 | 11.3 | 0.00 | 0.00 | 0.00 | ||
| 20260510090531 | 18 | 55 | 3.2 | 8.0 | 0.00 | 0.00 | 0.00 | ||
| 20260510090128 | 18 | 94 | 6.4 | 9.7 | 0.00 | 0.00 | 0.00 | ||
| 20260510085727 | 18 | 60 | 9.7 | 14.5 | 0.00 | 0.00 | 0.00 | ||
| 20260510085326 | 17 | 20 | 4.8 | 11.3 | 0.00 | 0.00 | 0.00 | ||
| 20260510084924 | 17 | 15 | 8.0 | 14.5 | 0.00 | 0.00 | 0.00 | ||
| 20260510084522 | 18 | 131 | 1.6 | 6.4 | 0.00 | 0.00 | 0.00 | ||
| 20260510084120 | 18 | 202 | 3.2 | 8.0 | 0.00 | 0.00 | 0.00 | ||
| 20260510083719 | 18 | 102 | 6.4 | 11.3 | 0.00 | 0.00 | 0.00 | ||
| 20260510083318 | 17 | 82 | 9.7 | 11.3 | 0.00 | 0.00 | 0.00 | ||
| 20260510082915 | 16 | 349 | 4.8 | 9.7 | 0.00 | 0.00 | 0.00 | ||
| 20260510082507 | 17 | 9 | 3.2 | 8.0 | 0.00 | 0.00 | 0.00 | ||
| 20260510082105 | 17 | 27 | 11.3 | 14.5 | 0.00 | 0.00 | 0.00 | ||
| 20260510081704 | 17 | 0 | 4.8 | 8.0 | 0.00 | 0.00 | 0.00 | ||
| 20260510081303 | 16 | 21 | 4.8 | 8.0 | 0.00 | 0.00 | 0.00 | ||
| 20260510080900 | 16 | 355 | 4.8 | 9.7 | 0.00 | 0.00 | 0.00 | ||
| 20260510080459 | 16 | 348 | 4.8 | 11.3 | 0.00 | 0.00 | 0.00 | ||
| 20260510080057 | 16 | 16 | 3.2 | 9.7 | 0.00 | 0.00 | 0.00 | ||
| 20260510075656 | 16 | 29 | 6.4 | 11.3 | 0.00 | 0.00 | 0.00 | ||
| 20260510075254 | 16 | 40 | 3.2 | 6.4 | 0.00 | 0.00 | 0.00 | ||
| 20260510074852 | 16 | 357 | 6.4 | 12.9 | 0.00 | 0.00 | 0.00 | ||
| 20260510074444 | 16 | 35 | 4.8 | 8.0 | 0.00 | 0.00 | 0.00 | ||
| 20260510074042 | 16 | 61 | 6.4 | 9.7 | 0.00 | 0.00 | 0.00 | ||
| 20260510073640 | 16 | 59 | 4.8 | 8.0 | 0.00 | 0.00 | 0.00 | ||
| 20260510073239 | 15 | 12 | 4.8 | 9.7 | 0.00 | 0.00 | 0.00 | ||
| 20260510072837 | 16 | 1 | 3.2 | 12.9 | 0.00 | 0.00 | 0.00 | ||
| 20260510072436 | 15 | 0 | 1.6 | 3.2 | 0.00 | 0.00 | 0.00 | ||
| 20260510072033 | 16 | 19 | 3.2 | 6.4 | 0.00 | 0.00 | 0.00 | ||
| 20260510071632 | 17 | 50 | 6.4 | 12.9 | 0.00 | 0.00 | 0.00 | ||
| 20260510071231 | 20 | 7 | 3.2 | 6.4 | 0.00 | 0.00 | 0.00 | ||
| 20260510070829 | 20 | 48 | 3.2 | 6.4 | 0.00 | 0.00 | 0.00 | ||
| 20260510070421 | 16 | 16 | 4.8 | 9.7 | 0.00 | 0.00 | 0.00 | ||
| 20260510070018 | 15 | 54 | 8.0 | 11.3 | 0.00 | 0.00 | 0.00 | ||
| 20260510065617 | 15 | 41 | 8.0 | 12.9 | 0.00 | 0.00 | 0.00 | ||
| 20260510065216 | 15 | 96 | 1.6 | 6.4 | 0.00 | 0.00 | 0.00 | ||
| 20260510064814 | 15 | 129 | 3.2 | 8.0 | 0.00 | 0.00 | 0.00 | ||
| 20260510064412 | 15 | 135 | 1.6 | 4.8 | 0.00 | 0.00 | 0.00 | ||
| 20260510064010 | 16 | 135 | 0.0 | 0.0 | 0.00 | 0.00 | 0.00 | ||
| 20260510063608 | 17 | 135 | 1.6 | 3.2 | 0.00 | 0.00 | 0.00 | ||
| 20260510063207 | 15 | 135 | 0.0 | 1.6 | 0.00 | 0.00 | 0.00 | ||
| 20260510062803 | 13 | 135 | 3.2 | 4.8 | 0.00 | 0.00 | 0.00 | ||
| 20260510062355 | 14 | 135 | 1.6 | 4.8 | 0.00 | 0.00 | 0.00 | ||
| 20260510061953 | 13 | 135 | 3.2 | 8.0 | 0.00 | 0.00 | 0.00 | ||
| 20260510061552 | 15 | 135 | 0.0 | 0.0 | 0.00 | 0.00 | 0.00 | ||
| 20260510061150 | 14 | 135 | 0.0 | 1.6 | 0.00 | 0.00 | 0.00 | ||
| 20260510060748 | 15 | 135 | 0.0 | 3.2 | 0.00 | 0.00 | 0.00 | ||
| 20260510060347 | 13 | 135 | 0.0 | 1.6 | 0.00 | 0.00 | 0.00 | ||
| 20260510055945 | 12 | 135 | 0.0 | 1.6 | 0.00 | 0.00 | 0.00 | ||
| 20260510055544 | 14 | 135 | 0.0 | 1.6 | 0.00 | 0.00 | 0.00 | ||
| 20260510055142 | 13 | 135 | 3.2 | 6.4 | 0.00 | 0.00 | 0.00 | ||
| 20260510054740 | 11 | 135 | 1.6 | 4.8 | 0.00 | 0.00 | 0.00 | ||
| 20260510054332 | 11 | 135 | 0.0 | 4.8 | 0.00 | 0.00 | 0.00 | ||
| 20260510053930 | 11 | 135 | 1.6 | 3.2 | 0.00 | 0.00 | 0.00 | ||
| 20260510053528 | 11 | 135 | 1.6 | 4.8 | 0.00 | 0.00 | 0.00 | ||
| 20260510053127 | 11 | 135 | 0.0 | 1.6 | 0.00 | 0.00 | 0.00 | ||
| 20260510052324 | 10 | 135 | 0.0 | 3.2 | 0.00 | 0.00 | 0.00 | ||
| 20260510051921 | 10 | 135 | 1.6 | 3.2 | 0.00 | 0.00 | 0.00 | ||
| 20260510051520 | 10 | 135 | 0.0 | 3.2 | 0.00 | 0.00 | 0.00 | ||
| 20260510051119 | 11 | 135 | 0.0 | 3.2 | 0.00 | 0.00 | 0.00 | ||
| 20260510050717 | 11 | 135 | 0.0 | 0.0 | 0.00 | 0.00 | 0.00 | ||
| 20260510050308 | 13 | 135 | 0.0 | 1.6 | 0.00 | 0.00 | 0.00 | ||
| 20260510045505 | 10 | 135 | 0.0 | 0.0 | 0.00 | 0.00 | 0.00 | ||
| 20260510045104 | 9 | 135 | 0.0 | 0.0 | 0.00 | 0.00 | 0.00 | ||
| 20260510044703 | 8 | 135 | 0.0 | 0.0 | 0.00 | 0.00 | 0.00 | ||
| 20260510044300 | 7 | 135 | 0.0 | 0.0 | 0.00 | 0.00 | 0.00 | ||
| 20260510043859 | 7 | 135 | 0.0 | 0.0 | 0.00 | 0.00 | 0.00 | ||
| 20260510043458 | 7 | 135 | 0.0 | 0.0 | 0.00 | 0.00 | 0.00 | ||
| 20260510043057 | 8 | 135 | 0.0 | 3.2 | 0.00 | 0.00 | 0.00 | ||
| 20260510042654 | 8 | 135 | 0.0 | 0.0 | 0.00 | 0.00 | 0.00 | ||
| 20260510042246 | 8 | 135 | 1.6 | 3.2 | 0.00 | 0.00 | 0.00 | ||
| 20260510041844 | 8 | 135 | 0.0 | 0.0 | 0.00 | 0.00 | 0.00 | ||
| 20260510041443 | 7 | 135 | 0.0 | 0.0 | 0.00 | 0.00 | 0.00 | ||
| 20260510041041 | 6 | 135 | 0.0 | 0.0 | 0.00 | 0.00 | 0.00 | ||
| 20260510040639 | 6 | 135 | 0.0 | 0.0 | 0.00 | 0.00 | 0.00 | ||
| 20260510040238 | 6 | 135 | 0.0 | 0.0 | 0.00 | 0.00 | 0.00 | ||
| 20260510035836 | 5 | 135 | 0.0 | 0.0 | 0.00 | 0.00 | 0.00 | ||
| 20260510035434 | 5 | 135 | 0.0 | 0.0 | 0.00 | 0.00 | 0.00 | ||
| 20260510035033 | 5 | 135 | 0.0 | 0.0 | 0.00 | 0.00 | 0.00 | ||
| 20260510034631 | 5 | 135 | 0.0 | 0.0 | 0.00 | 0.00 | 0.00 | ||
| 20260510034223 | 5 | 135 | 0.0 | 0.0 | 0.00 | 0.00 | 0.00 | ||
| 20260510033821 | 5 | 135 | 0.0 | 0.0 | 0.00 | 0.00 | 0.00 | ||
| 20260510033419 | 5 | 135 | 0.0 | 0.0 | 0.00 | 0.00 | 0.00 | ||
| 20260510033018 | 4 | 135 | 0.0 | 0.0 | 0.00 | 0.00 | 0.00 | ||
| 20260510032616 | 3 | 135 | 0.0 | 3.2 | 0.00 | 0.00 | 0.00 | ||
| 20260510032215 | 3 | 135 | 0.0 | 0.0 | 0.00 | 0.00 | 0.00 | ||
| 20260510031812 | 4 | 135 | 0.0 | 0.0 | 0.00 | 0.00 | 0.00 | ||
| 20260510031412 | 4 | 135 | 0.0 | 1.6 | 0.00 | 0.00 | 0.00 | ||
| 20260510031011 | 5 | 135 | 0.0 | 0.0 | 0.00 | 0.00 | 0.00 | ||
| 20260510030609 | 5 | 135 | 1.6 | 3.2 | 0.00 | 0.00 | 0.00 | ||
| 20260510030200 | 5 | 135 | 0.0 | 0.0 | 0.00 | 0.00 | 0.00 | ||
| 20260510025758 | 5 | 135 | 0.0 | 0.0 | 0.00 | 0.00 | 0.00 | ||
| 20260510025357 | 5 | 135 | 0.0 | 0.0 | 0.00 | 0.00 | 0.00 | ||
| 20260510024956 | 5 | 135 | 0.0 | 0.0 | 0.00 | 0.00 | 0.00 | ||
| 20260510024553 | 5 | 135 | 1.6 | 3.2 | 0.00 | 0.00 | 0.00 | ||
| 20260510024152 | 4 | 138 | 4.8 | 6.4 | 0.00 | 0.00 | 0.00 | ||
| 20260510023750 | 4 | 157 | 1.6 | 3.2 | 0.00 | 0.00 | 0.00 | ||
| 20260510023349 | 4 | 157 | 0.0 | 1.6 | 0.00 | 0.00 | 0.00 | ||
| 20260510022948 | 4 | 157 | 1.6 | 1.6 | 0.00 | 0.00 | 0.00 | ||
| 20260510022545 | 5 | 157 | 1.6 | 3.2 | 0.00 | 0.00 | 0.00 | ||
| 20260510022137 | 4 | 157 | 1.6 | 3.2 | 0.00 | 0.00 | 0.00 | ||
| 20260510021735 | 4 | 157 | 0.0 | 0.0 | 0.00 | 0.00 | 0.00 | ||
| 20260510021334 | 4 | 157 | 0.0 | 1.6 | 0.00 | 0.00 | 0.00 | ||
| 20260510020932 | 5 | 157 | 0.0 | 0.0 | 0.00 | 0.00 | 0.00 | ||
| 20260510020530 | 5 | 157 | 0.0 | 0.0 | 0.00 | 0.00 | 0.00 | ||
| 20260510020129 | 5 | 157 | 0.0 | 0.0 | 0.00 | 0.00 | 0.00 | ||
| 20260510015727 | 5 | 157 | 0.0 | 0.0 | 0.00 | 0.00 | 0.00 | ||
| 20260510015325 | 5 | 157 | 0.0 | 0.0 | 0.00 | 0.00 | 0.00 | ||
| 20260510014924 | 5 | 157 | 0.0 | 0.0 | 0.00 | 0.00 | 0.00 | ||
| 20260510014523 | 5 | 157 | 0.0 | 0.0 | 0.00 | 0.00 | 0.00 | ||
| 20260510014115 | 5 | 157 | 1.6 | 3.2 | 0.00 | 0.00 | 0.00 | ||
| 20260510013712 | 5 | 157 | 0.0 | 0.0 | 0.00 | 0.00 | 0.00 | ||
| 20260510013311 | 5 | 157 | 0.0 | 0.0 | 0.00 | 0.00 | 0.00 | ||
| 20260510012910 | 6 | 157 | 0.0 | 0.0 | 0.00 | 0.00 | 0.00 | ||
| 20260510012508 | 6 | 157 | 0.0 | 0.0 | 0.00 | 0.00 | 0.00 | ||
| 20260510012107 | 6 | 157 | 0.0 | 0.0 | 0.00 | 0.00 | 0.00 | ||
| 20260510011704 | 6 | 157 | 0.0 | 0.0 | 0.00 | 0.00 | 0.00 | ||
| 20260510011303 | 6 | 157 | 0.0 | 0.0 | 0.00 | 0.00 | 0.00 | ||
| 20260510010902 | 6 | 157 | 0.0 | 0.0 | 0.00 | 0.00 | 0.00 | ||
| 20260510010500 | 6 | 157 | 0.0 | 0.0 | 0.00 | 0.00 | 0.00 | ||
| 20260510010051 | 5 | 157 | 0.0 | 0.0 | 0.00 | 0.00 | 0.00 | ||
| 20260510005649 | 5 | 157 | 0.0 | 0.0 | 0.00 | 0.00 | 0.00 | ||
| 20260510005248 | 5 | 157 | 0.0 | 0.0 | 0.00 | 0.00 | 0.00 | ||
| 20260510004847 | 5 | 157 | 0.0 | 0.0 | 0.00 | 0.00 | 0.00 | ||
| 20260510004444 | 5 | 157 | 0.0 | 0.0 | 0.00 | 0.00 | 0.00 | ||
| 20260510004043 | 5 | 157 | 0.0 | 0.0 | 0.00 | 0.00 | 0.00 | ||
| 20260510003641 | 5 | 157 | 0.0 | 0.0 | 0.00 | 0.00 | 0.00 | ||
| 20260510003240 | 5 | 157 | 0.0 | 1.6 | 0.00 | 0.00 | 0.00 | ||
| 20260510002838 | 6 | 157 | 0.0 | 0.0 | 0.00 | 0.00 | 0.00 | ||
| 20260510002436 | 6 | 157 | 0.0 | 0.0 | 0.00 | 0.00 | 0.00 | ||
| 20260510002028 | 6 | 157 | 0.0 | 0.0 | 0.00 | 0.00 | 0.00 | ||
| 20260510001627 | 6 | 157 | 0.0 | 0.0 | 0.00 | 0.00 | 0.00 | ||
| 20260510001226 | 6 | 157 | 0.0 | 0.0 | 0.00 | 0.00 | 0.00 | ||
| 20260510000823 | 6 | 157 | 0.0 | 0.0 | 0.00 | 0.00 | 0.00 | ||
| 20260510000422 | 6 | 157 | 1.6 | 3.2 | 0.00 | 0.00 | 0.00 | ||
| 20260510000021 | 6 | 157 | 1.6 | 3.2 | 0.00 | 0.00 | 0.00 | ||
| 20260509235619 | 6 | 157 | 0.0 | 3.2 | 0.00 | 0.00 | 0.00 | ||
| 20260509235217 | 6 | 157 | 0.0 | 0.0 | 0.00 | 0.00 | 0.00 | ||
| 20260509234816 | 6 | 157 | 0.0 | 0.0 | 0.00 | 0.00 | 0.00 | ||
| 20260509234414 | 6 | 157 | 0.0 | 1.6 | 0.00 | 0.00 | 0.00 | ||
| 20260509234006 | 6 | 157 | 0.0 | 0.0 | 0.00 | 0.00 | 0.00 | ||
| 20260509233603 | 6 | 157 | 0.0 | 3.2 | 0.00 | 0.00 | 0.00 | ||
| 20260509233202 | 6 | 157 | 0.0 | 1.6 | 0.00 | 0.00 | 0.00 | ||
| 20260509232801 | 6 | 157 | 1.6 | 3.2 | 0.00 | 0.00 | 0.00 | ||
| 20260509232359 | 6 | 157 | 3.2 | 3.2 | 0.00 | 0.00 | 0.00 | ||
| 20260509231957 | 6 | 157 | 0.0 | 3.2 | 0.00 | 0.00 | 0.00 | ||
| 20260509231555 | 6 | 157 | 0.0 | 3.2 | 0.00 | 0.00 | 0.00 | ||
| 20260509230753 | 7 | 157 | 1.6 | 3.2 | 0.00 | 0.00 | 0.00 | ||
| 20260509230351 | 7 | 157 | 0.0 | 0.0 | 0.00 | 0.00 | 0.00 | ||
| 20260509225942 | 7 | 157 | 0.0 | 0.0 | 0.00 | 0.00 | 0.00 | ||
| 20260509225540 | 7 | 157 | 0.0 | 0.0 | 0.00 | 0.00 | 0.00 | ||
| 20260509224739 | 7 | 157 | 0.0 | 0.0 | 0.00 | 0.00 | 0.00 | ||
| 20260509224335 | 7 | 157 | 0.0 | 0.0 | 0.00 | 0.00 | 0.00 | ||
| 20260509223933 | 7 | 157 | 0.0 | 0.0 | 0.00 | 0.00 | 0.00 | ||
| 20260509223531 | 7 | 157 | 0.0 | 0.0 | 0.00 | 0.00 | 0.00 | ||
| 20260509223130 | 7 | 157 | 0.0 | 0.0 | 0.00 | 0.00 | 0.00 | ||
| 20260509222728 | 7 | 157 | 0.0 | 0.0 | 0.00 | 0.00 | 0.00 | ||
| 20260509222326 | 7 | 157 | 0.0 | 1.6 | 0.00 | 0.00 | 0.00 | ||
| 20260509221918 | 7 | 157 | 1.6 | 3.2 | 0.00 | 0.00 | 0.00 | ||
| 20260509221516 | 7 | 157 | 0.0 | 0.0 | 0.00 | 0.00 | 0.00 | ||
| 20260509221114 | 7 | 157 | 0.0 | 0.0 | 0.00 | 0.00 | 0.00 | ||
| 20260509220713 | 7 | 157 | 0.0 | 0.0 | 0.00 | 0.00 | 0.00 | ||
| 20260509220311 | 8 | 157 | 0.0 | 0.0 | 0.00 | 0.00 | 0.00 | ||
| 20260509215910 | 8 | 157 | 0.0 | 0.0 | 0.00 | 0.00 | 0.00 | ||
| 20260509215508 | 8 | 157 | 0.0 | 0.0 | 0.00 | 0.00 | 0.00 | ||
| 20260509215105 | 8 | 157 | 0.0 | 1.6 | 0.00 | 0.00 | 0.00 | ||
| 20260509214704 | 8 | 157 | 1.6 | 3.2 | 0.00 | 0.00 | 0.00 | ||
| 20260509214303 | 7 | 157 | 1.6 | 3.2 | 0.00 | 0.00 | 0.00 | ||
| 20260509213855 | 7 | 157 | 0.0 | 0.0 | 0.00 | 0.00 | 0.00 | ||
| 20260509213452 | 8 | 67 | 1.6 | 4.8 | 0.00 | 0.00 | 0.00 | ||
| 20260509213051 | 8 | 67 | 1.6 | 4.8 | 0.00 | 0.00 | 0.00 | ||
| 20260509212650 | 8 | 67 | 0.0 | 3.2 | 0.00 | 0.00 | 0.00 | ||
| 20260509212248 | 9 | 67 | 3.2 | 4.8 | 0.00 | 0.00 | 0.00 | ||
| 20260509211846 | 8 | 67 | 4.8 | 6.4 | 0.00 | 0.00 | 0.00 | ||
| 20260509211444 | 8 | 67 | 3.2 | 6.4 | 0.00 | 0.00 | 0.00 | ||
| 20260509211043 | 10 | 67 | 4.8 | 6.4 | 0.00 | 0.00 | 0.00 | ||
| 20260509210642 | 10 | 84 | 4.8 | 9.7 | 0.00 | 0.00 | 0.00 | ||
| 20260509210239 | 10 | 67 | 4.8 | 6.4 | 0.00 | 0.00 | 0.00 | ||
| 20260509205831 | 10 | 47 | 6.4 | 12.9 | 0.00 | 0.00 | 0.00 | ||
| 20260509205429 | 10 | 39 | 4.8 | 11.3 | 0.00 | 0.00 | 0.00 | ||
| 20260509205028 | 10 | 27 | 6.4 | 9.7 | 0.00 | 0.00 | 0.00 | ||
| 20260509204627 | 10 | 39 | 6.4 | 8.0 | 0.00 | 0.00 | 0.00 | ||
| 20260509204224 | 10 | 45 | 6.4 | 9.7 | 0.00 | 0.00 | 0.00 | ||
| 20260509203823 | 10 | 41 | 6.4 | 9.7 | 0.00 | 0.00 | 0.00 | ||
| 20260509203421 | 10 | 35 | 6.4 | 9.7 | 0.00 | 0.00 | 0.00 | ||
| 20260509203020 | 10 | 41 | 8.0 | 9.7 | 0.00 | 0.00 | 0.00 | ||
| 20260509202618 | 10 | 40 | 6.4 | 11.3 | 0.00 | 0.00 | 0.00 | ||
| 20260509202216 | 10 | 20 | 8.0 | 9.7 | 0.00 | 0.00 | 0.00 | ||
| 20260509201808 | 10 | 35 | 6.4 | 11.3 | 0.00 | 0.00 | 0.00 | ||
| 20260509201407 | 10 | 41 | 6.4 | 9.7 | 0.00 | 0.00 | 0.00 | ||
| 20260509201004 | 10 | 45 | 4.8 | 6.4 | 0.00 | 0.00 | 0.00 | ||
| 20260509200604 | 11 | 45 | 6.4 | 8.0 | 0.00 | 0.00 | 0.00 | ||
| 20260509200202 | 11 | 30 | 6.4 | 8.0 | 0.00 | 0.00 | 0.00 | ||
| 20260509195801 | 11 | 42 | 6.4 | 8.0 | 0.00 | 0.00 | 0.00 |